Regional Weather Roundup
Issued by NWS

Home | Current Version | Previous Version | Graphics & Text | Print | Product List | Glossary Off
Versions: 1 2 3 4 5 6 7 8 9 10 11 12 13 14 15 16 17 18 19 20 21 22 23 24 25 26 27

000
ASUS45 KBOU 190407
RWRCO

WEATHER ROUNDUP FOR COLORADO
NATIONAL WEATHER SERVICE DENVER/BOULDER CO
1000 PM MDT FRI AUG 18 2017

NOTE: "FAIR" INDICATES FEW OR NO CLOUDS BELOW 12000 FEET WITH NO
SIGNIFICANT WEATHER AND/OR OBSTRUCTIONS TO VISIBILITY.

COZ001>005-013-030-031-190500-
...NORTHWEST COLORADO...

CITY           SKY/WX    TMP DP  RH WIND       PRES   REMARKS
CRAIG          FAIR      63  28  26 CALM      30.21R
HAYDEN         FAIR      67  31  26 W3        30.26R
MEEKER         FAIR      63  33  32 N3        30.24R
RABBIT EARS PA MOCLDY    55  28  35 W3        30.57R
STEAMBOAT SPGS FAIR      63  34  34 CALM      30.27R
WALDEN         FAIR      50  34  53 SE9       30.38R
$$

COZ006>008-011-190500-
...WEST CENTRAL VALLEYS...

CITY           SKY/WX    TMP DP  RH WIND       PRES   REMARKS
GRAND JUNCTION FAIR      73  29  19 E3        30.09R
MONTROSE       FAIR      69  43  38 SE8       30.20R
EAGLE          FAIR      65  34  31 E8        30.27R
RIFLE          FAIR      72  28  19 E6        30.16R
DELTA          FAIR      77  28  16 NE6       30.13R
NUCLA          FAIR      70  30  23 E6        30.23R
$$

COZ017>023-064>068-190500-
...SOUTHWEST COLORADO...

CITY           SKY/WX    TMP DP  RH WIND       PRES   REMARKS
DURANGO        FAIR      65  38  36 N9        30.26R
CORTEZ         FAIR      63  35  35 NE9       30.20R
PAGOSA SPRINGS FAIR      66  31  27 CALM      30.36S
TELLURIDE      CLOUDY    61  36  39 SE7       30.49R
WOLF CREEK PAS CLOUDY    52  30  43 CALM      30.75R
$$

COZ009-010-012-014-032>034-037-058>063-190500-
...CENTRAL COLORADO...

CITY           SKY/WX    TMP DP  RH WIND       PRES   REMARKS
ASPEN          FAIR      58  38  47 SW10      30.35R
BUENA VISTA    FAIR      67  32  27 W3        30.37R
COPPER MTN     FAIR      54  27  35 W12       30.69S
BERTHOUD PASS  FAIR      45  41  87 NW15      30.71F
COTTONWOOD PAS MOCLDY    63  23  22 NW5       30.52R
GUNNISON       FAIR      59  39  47 N8        30.36R
KREMMLING      FAIR      64  37  36 CALM      30.32S
LEADVILLE      FAIR      50  32  50 E6        30.51S
MONARCH PASS   FAIR      52  30  43 W17       30.79S
SALIDA         FAIR      66  33  29 W5        30.40R
SUNLIGHT       FAIR      52  19  28 W7        30.62S
WILKERSON PASS MOCLDY    54  32  43 SW9G20    30.67S
$$

COZ069>075-190500-
...SAN LUIS VALLEY/SANGRE DE CRISTO MOUNTAINS...

CITY           SKY/WX    TMP DP  RH WIND       PRES   REMARKS
ALAMOSA        MOCLDY    64  44  48 W5        30.32R
DEL NORTE      FAIR      61  38  43 SW13      30.38R
LA VETA PASS   NOT AVBL
SAGUACHE       FAIR      63  36  36 N9        30.37R
$$

COZ035-036-038>040-190500-
...NORTHERN COLORADO FRONT RANGE...

CITY           SKY/WX    TMP DP  RH WIND       PRES   REMARKS
DENVER INTL AP FAIR      65  49  56 S12       30.15R
DMNS CITY PARK   N/A     72  46  39 W5        30.15R
AURORA         PTCLDY    71  47  43 S9        30.17S
FRONT RANGE AP FAIR      68  52  56 SE8       30.17S
ERIE MUNI ARPT FAIR      68  46  45 CALM      30.19S
BOULDER MUN AP FAIR      72  45  37 W6        30.15S
CENTENNIAL     FAIR      71  46  40 S12       30.19R
BROOMFIELD     PTCLDY    73  41  31 NW9       30.18R
FORT COLLINS   FAIR      72  52  49 SW5       30.14S
LONGMONT       FAIR      68  51  54 W7        30.16R
$$

COZ041-046-047-076>085-087-088-190500-
...PIKES PEAK/PALMER DIVIDE AND SOUTHERN FOOTHILLS...

CITY           SKY/WX    TMP DP  RH WIND       PRES   REMARKS
COLO. SPRINGS  FAIR      69  45  41 CALM      30.26R
A. F. ACADEMY  FAIR      67  43  42 E5        30.27R
SCHRIEVER AFB  FAIR      64  46  53 NE7       30.26R
CHEYENNE MTN   FAIR      72  36  27 S17       30.26R
ELLICOTT       NOT AVBL
FALCON         FAIR      63  45  51 NE3       30.31S
FORT CARSON    FAIR      71  44  37 W6        30.22R
LIMON          FAIR      59  54  83 CALM      30.19R
MONUMENT HILL  FAIR      59  46  63 S12       30.32S
CANON CITY     CLEAR     72  46  40 N10       30.18R
WALSENBURG     FAIR      72  41  33 S10       30.21S
TRINIDAD       FAIR      68  48  48 CALM      30.21S
$$

COZ042>045-048>051-090-091-190500-
...NORTHEAST COLORADO...

CITY           SKY/WX    TMP DP  RH WIND       PRES   REMARKS
GREELEY ARPT   FAIR      66  57  72 N3        30.12R
AKRON          FAIR      68  48  48 S14       30.13R
BURLINGTON     FAIR      66  56  70 SE9       30.13R
WRAY           NOT AVBL
YUMA           FAIR      61  41  48 SE6       30.10S
STERLING       FAIR      68  48  49 CALM      30.07S
HOLYOKE        FAIR      63  54  72 S8        30.08S
FORT MORGAN    FAIR      69  48  46 S10       30.11S
$$

COZ086-089-092>099-190500-
...SOUTHEAST COLORADO...

CITY           SKY/WX    TMP DP  RH WIND       PRES   REMARKS
PUEBLO         FAIR      71  46  40 E6        30.12R
LA JUNTA       FAIR      71  55  56 E8        30.10R
LAMAR          FAIR      69  60  73 SE8       30.07R
SPRINGFIELD      N/A     67  63  87 S8        30.13R
$$




USA.gov is the U.S. government's official web portal to all federal, state and local government web resources and services.